Homerville, GA

5:49 AM EDT on June 24, 2017 (GMT -0400)
Homerville

Weather History for KHOE - October, 2012

Change the Weather History Date:

Sunday, October 28, 2012

  Actual Average Record
Temperature  
Mean Temperature 61 °F -  
Max Temperature 71 °F 76 °F 87 °F (1963)
Min Temperature 51 °F 50 °F 32 °F (1962)
Degree Days  
Heating Degree Days 4    
Growing Degree Days 11 (Base 50)    
Moisture  
Dew Point 52 °F    
Average Humidity 77    
Maximum Humidity 94    
Minimum Humidity 57    
Precipitation  
Precipitation 0.00 in - - ()
Sea Level Pressure  
Sea Level Pressure 29.75 in    
Wind  
Wind Speed 12 mph (NW)    
Max Wind Speed 18 mph    
Max Gust Speed 31 mph    
Visibility 10 miles    
Events      
Averages and records for this station are not official NWS values.
T = Trace of Precipitation, MM = Missing Value Source: NWS Daily Summary

Daily Weather History Graph

Daily Weather History Graph

Search for Another Location

Airport or City:

Trip Planner

Search our weather history database for the weather conditions in past years. The results will help you decide how hot, cold, wet, or windy it might be!

Date:

Astronomy

Oct. 28, 2012 Rise Set
Actual Time 7:43 AM EDT 6:45 PM EDT
Civil Twilight 7:18 AM EDT 7:10 PM EDT
Nautical Twilight 6:50 AM EDT 7:38 PM EDT
Astronomical Twilight 6:22 AM EDT 8:07 PM EDT
Moon 6:02 PM EDT (10/28) 6:37 AM EDT (10/28)
Length of Visible Light 11h 51m
Length of Day
11h 01m
Waxing Gibbous, 99% of the Moon is Illuminated
Oct 28
Waxing Gibbous
Oct 29
Full
Nov 6
Last Quarter
Nov 13
New
Nov 20
First Quarter

Hourly Weather History & Observations

Time (EDT) Temp. Dew Point Humidity Pressure Visibility Wind Dir Wind Speed Gust Speed Precip Events Conditions
12:15 AM 62.6 °F 59.0 °F 88% 29.74 in 10.0 mi NW 9.2 mph - N/A   Clear
12:35 AM 62.6 °F 59.0 °F 88% 29.73 in 10.0 mi NW 11.5 mph - N/A   Clear
12:55 AM 62.6 °F 59.0 °F 88% 29.73 in 10.0 mi NW 10.4 mph - N/A   Clear
1:15 AM 62.6 °F 59.0 °F 88% 29.73 in 10.0 mi NW 10.4 mph - N/A   Clear
1:35 AM 62.6 °F 59.0 °F 88% 29.73 in 10.0 mi NW 9.2 mph - N/A   Clear
1:55 AM 60.8 °F 57.2 °F 88% 29.73 in 10.0 mi NW 11.5 mph - N/A   Clear
2:15 AM 60.8 °F 57.2 °F 88% 29.74 in 10.0 mi NW 9.2 mph - N/A   Clear
3:15 AM 59.0 °F 53.6 °F 82% 29.74 in 10.0 mi NW 12.7 mph 16.1 mph N/A   Clear
3:35 AM 57.2 °F 53.6 °F 88% 29.74 in 10.0 mi NW 12.7 mph 16.1 mph N/A   Clear
3:55 AM 57.2 °F 53.6 °F 88% 29.74 in 10.0 mi NW 10.4 mph - N/A   Clear
4:15 AM 55.4 °F 53.6 °F 94% 29.73 in 10.0 mi NW 10.4 mph - N/A   Clear
4:35 AM 55.4 °F 53.6 °F 94% 29.73 in 10.0 mi NW 11.5 mph - N/A   Clear
4:55 AM 55.4 °F 51.8 °F 88% 29.73 in 10.0 mi NW 10.4 mph - N/A   Clear
5:15 AM 53.6 °F 51.8 °F 94% 29.73 in 10.0 mi NW 9.2 mph 16.1 mph N/A   Clear
5:35 AM 53.6 °F 51.8 °F 94% 29.73 in 10.0 mi NW 8.1 mph - N/A   Clear
5:55 AM 53.6 °F 51.8 °F 94% 29.73 in 10.0 mi NW 8.1 mph - N/A   Clear
6:15 AM 53.6 °F 51.8 °F 94% 29.73 in 10.0 mi NW 9.2 mph - N/A   Clear
6:35 AM 53.6 °F 51.8 °F 94% 29.73 in 10.0 mi NW 8.1 mph - N/A   Clear
6:55 AM 51.8 °F 50.0 °F 94% 29.73 in 10.0 mi NW 8.1 mph - N/A   Clear
7:15 AM 51.8 °F 50.0 °F 94% 29.74 in 10.0 mi NW 8.1 mph - N/A   Clear
7:35 AM 51.8 °F 50.0 °F 94% 29.75 in 10.0 mi NW 9.2 mph - N/A   Clear
7:55 AM 51.8 °F 50.0 °F 94% 29.76 in 10.0 mi NW 9.2 mph - N/A   Clear
8:15 AM 51.8 °F 50.0 °F 94% 29.76 in 10.0 mi NW 9.2 mph - N/A   Clear
8:35 AM 53.6 °F 50.0 °F 88% 29.77 in 10.0 mi NW 11.5 mph - N/A   Clear
8:55 AM 53.6 °F 51.8 °F 94% 29.77 in 10.0 mi NW 15.0 mph 18.4 mph N/A   Clear
9:15 AM 55.4 °F 51.8 °F 88% 29.77 in 10.0 mi NW 16.1 mph 20.7 mph N/A   Clear
9:35 AM 57.2 °F 51.8 °F 82% 29.78 in 10.0 mi NW 13.8 mph 18.4 mph N/A   Clear
9:55 AM 59.0 °F 51.8 °F 77% 29.78 in 10.0 mi WNW 15.0 mph - N/A   Clear
10:15 AM 60.8 °F 51.8 °F 72% 29.78 in 10.0 mi NW 13.8 mph 19.6 mph N/A   Clear
11:15 AM 62.6 °F 53.6 °F 72% 29.77 in 10.0 mi NNW 12.7 mph - N/A   Clear
11:35 AM 64.4 °F 53.6 °F 68% 29.77 in 10.0 mi NW 15.0 mph - N/A   Clear
11:55 AM 64.4 °F 53.6 °F 68% 29.77 in 10.0 mi NW 10.4 mph 17.3 mph N/A   Clear
12:15 PM 66.2 °F 53.6 °F 64% 29.75 in 10.0 mi WNW 9.2 mph - N/A   Clear
12:35 PM 66.2 °F 53.6 °F 64% 29.74 in 10.0 mi NW 11.5 mph 17.3 mph N/A   Clear
1:15 PM 68.0 °F 55.4 °F 64% 29.73 in 10.0 mi NW 10.4 mph - N/A   Clear
1:35 PM 69.8 °F 55.4 °F 60% 29.72 in 10.0 mi NW 17.3 mph - N/A   Clear
1:55 PM 69.8 °F 55.4 °F 60% 29.71 in 10.0 mi NW 12.7 mph - N/A   Clear
2:15 PM 69.8 °F 55.4 °F 60% 29.71 in 10.0 mi West 10.4 mph - N/A   Clear
2:35 PM 71.6 °F 55.4 °F 57% 29.70 in 10.0 mi NW 15.0 mph 20.7 mph N/A   Clear
2:55 PM 69.8 °F 55.4 °F 60% 29.70 in 10.0 mi WNW 16.1 mph 19.6 mph N/A   Clear
3:15 PM 69.8 °F 55.4 °F 60% 29.69 in 10.0 mi WNW 11.5 mph 20.7 mph N/A   Clear
3:35 PM 69.8 °F 55.4 °F 60% 29.69 in 10.0 mi NW 13.8 mph - N/A   Clear
3:55 PM 71.6 °F 55.4 °F 57% 29.70 in 10.0 mi WNW 13.8 mph 19.6 mph N/A   Scattered Clouds
4:15 PM 69.8 °F 55.4 °F 60% 29.70 in 10.0 mi WNW 13.8 mph 21.9 mph N/A   Clear
4:35 PM 69.8 °F 55.4 °F 60% 29.70 in 10.0 mi WNW 13.8 mph 21.9 mph N/A   Scattered Clouds
4:55 PM 68.0 °F 53.6 °F 60% 29.70 in 10.0 mi WNW 15.0 mph 23.0 mph N/A   Scattered Clouds
5:15 PM 68.0 °F 53.6 °F 60% 29.71 in 10.0 mi WNW 16.1 mph - N/A   Scattered Clouds
5:55 PM 64.4 °F 53.6 °F 68% 29.72 in 10.0 mi NW 17.3 mph 23.0 mph N/A   Scattered Clouds
6:15 PM 62.6 °F 53.6 °F 72% 29.74 in 10.0 mi WNW 13.8 mph 20.7 mph N/A   Mostly Cloudy
6:35 PM 60.8 °F 51.8 °F 72% 29.74 in 10.0 mi WNW 12.7 mph 17.3 mph N/A   Overcast
6:55 PM 60.8 °F 51.8 °F 72% 29.75 in 10.0 mi WNW 12.7 mph 20.7 mph N/A   Overcast
7:15 PM 60.8 °F 51.8 °F 72% 29.75 in 10.0 mi WNW 15.0 mph 20.7 mph N/A   Overcast
7:35 PM 60.8 °F 51.8 °F 72% 29.76 in 10.0 mi NW 13.8 mph - N/A   Overcast
7:55 PM 59.0 °F 51.8 °F 77% 29.77 in 10.0 mi NW 15.0 mph - N/A   Overcast
8:15 PM 59.0 °F 50.0 °F 72% 29.77 in 10.0 mi NW 12.7 mph 18.4 mph N/A   Overcast
8:35 PM 59.0 °F 50.0 °F 72% 29.78 in 10.0 mi NW 18.4 mph 26.5 mph N/A   Overcast
8:55 PM 59.0 °F 50.0 °F 72% 29.79 in 10.0 mi NW 15.0 mph - N/A   Overcast
9:15 PM 57.2 °F 48.2 °F 72% 29.79 in 10.0 mi NW 17.3 mph 23.0 mph N/A   Overcast
9:35 PM 57.2 °F 46.4 °F 67% 29.80 in 10.0 mi NW 15.0 mph 21.9 mph N/A   Overcast
10:15 PM 55.4 °F 44.6 °F 67% 29.81 in 10.0 mi NNW 16.1 mph 31.1 mph N/A   Overcast
10:35 PM 55.4 °F 44.6 °F 67% 29.81 in 10.0 mi NNW 11.5 mph 21.9 mph N/A   Overcast
10:55 PM 55.4 °F 44.6 °F 67% 29.81 in 10.0 mi NNW 10.4 mph 23.0 mph N/A   Mostly Cloudy
11:15 PM 53.6 °F 44.6 °F 72% 29.82 in 10.0 mi NNW 10.4 mph 17.3 mph N/A   Scattered Clouds
11:35 PM 53.6 °F 44.6 °F 72% 29.82 in 10.0 mi NW 17.3 mph 21.9 mph N/A   Scattered Clouds
11:55 PM 53.6 °F 42.8 °F 67% 29.82 in 10.0 mi NW 10.4 mph 20.7 mph N/A   Scattered Clouds